Location: North Mitre
(40.7833°S, 175.4667°E)
Time: 18:41:07
(UTC+00:00)

ARIANE 5 R/B - Pass Details

Date: 04 August 2024
Orbit: 747 x 793 km, 98.8° (Epoch: 17 September)

Event Time Altitude Azimuth Distance (km) Brightness Sun altitude
Rises 16:13:03 0° 30° (NNE) 3,276 6.0 -35.7°
Reaches altitude 10° 16:15:25 10° 35° (NE) 2,350 5.3 -35.2°
Enters shadow 16:17:23 23° 44° (NE) 1,633 4.4 -34.8°
